Location: Br�znic
(45.9167°N, 22.6500°E)
Time: 18:24:00
(UTC+00:00)

Cosmos 1869 Rocket - Pass Details

Date: 03 March 2021
Orbit: 605 x 633 km, 82.5° (Epoch: 16 April)

Event Time Altitude Azimuth Distance (km) Brightness Sun altitude
Rises 18:12:48 0° 184° (S) 2,857 6.9 -20.5°
Reaches altitude 10° 18:15:00 10° 183° (S) 1,961 6.0 -20.9°
Maximum altitude 18:19:20 79° 97° (E) 633 3.4 -21.6°
Drops below altitude 10° 18:23:45 10° 11° (NNE) 1,995 6.2 -22.4°
Sets 18:26:00 0° 11° (N) 2,910 7.1 -22.7°
